Regional Weather Roundup
Issued by NWS

Home | Current Version | Previous Version | Graphics & Text | Print | Product List | Glossary On
Versions: 1 2 3 4 5 6 7 8 9 10 11 12 13 14 15 16 17 18 19 20 21 22 23 24 25 26 27 28
000
ASUS45 KBOU 151606
RWRCO

WEATHER ROUNDUP FOR COLORADO
NATIONAL WEATHER SERVICE DENVER/BOULDER CO
1000 AM MDT TUE APR 15 2014

NOTE: "FAIR" INDICATES FEW OR NO CLOUDS BELOW 12000 FEET WITH NO
SIGNIFICANT WEATHER AND/OR OBSTRUCTIONS TO VISIBILITY.

COZ001>005-013-030-031-151700-
...NORTHWEST COLORADO...

CITY           SKY/WX    TMP DP  RH WIND       PRES   REMARKS
CRAIG          PTSUNNY   38  19  46 SE6       30.09F
HAYDEN         PTSUNNY   34  19  55 SE6       30.12S WCI  29
MEEKER         MOSUNNY   37  22  54 N6        30.11F
MOUNT WERNER   PTSUNNY   28   3  34 W10G16    30.12S WCI  19
STEAMBOAT SPGS PTSUNNY   30  17  57 CALM      30.10F
WALDEN         PTSUNNY   30  16  55 S16       30.03F WCI  19
$$

COZ006>008-011-151700-
...WEST CENTRAL VALLEYS...

CITY           SKY/WX    TMP DP  RH WIND       PRES   REMARKS
GRAND JUNCTION SUNNY     42  19  39 SE14      30.15F
MONTROSE       SUNNY     41  18  39 VRB5      30.17F
EAGLE          SUNNY     34  16  47 CALM      30.16F
RIFLE          SUNNY     37  20  50 VRB5      30.16F
DELTA          SUNNY     41  26  53 CALM      30.17F
NUCLA            N/A     41  19  42 CALM      30.20F
$$

COZ017>023-064>068-151700-
...SOUTHWEST COLORADO...

CITY           SKY/WX    TMP DP  RH WIND       PRES   REMARKS
DURANGO        SUNNY     42   9  25 NE5       30.18F
CORTEZ         SUNNY     43  14  31 VRB3      30.17F
PAGOSA SPRINGS SUNNY     40   8  26 CALM      30.19F
TELLURIDE      SUNNY     37  10  32 CALM      30.18S
WOLF CREEK PAS NOT AVBL
$$

COZ009-010-012-014-032>034-037-058>063-151700-
...CENTRAL COLORADO...

CITY           SKY/WX    TMP DP  RH WIND       PRES   REMARKS
ASPEN          MOSUNNY   37  17  44 N7        30.11F
BUENA VISTA    SUNNY     37  14  38 SE5       30.10F
COPPER MTN     SUNNY     28  12  50 SW10      30.14S WCI  19
BERTHOUD PASS  FAIR      18   9  68 NW41G51   30.05S WCI  -5
COTTONWOOD PAS SUNNY     34  12  40 SE7       30.11F WCI  28
GUNNISON       SUNNY     30  12  47 N3        30.22F
KREMMLING      MOSUNNY   25  14  63 S3        30.15F
LEADVILLE      SUNNY     33   6  32 N9G20     30.09F WCI  25
MONARCH PASS   SUNNY     18   9  68 SW35G40   30.24F WCI  -3
SALIDA         SUNNY     45   8  22 SW13G21   30.17F
SUNLIGHT       MOSUNNY   30  19  64 CALM      30.16F
WILKERSON PASS SUNNY     28   9  43 SW10      30.14S WCI  19
$$

COZ069>075-151700-
...SAN LUIS VALLEY/SANGRE DE CRISTO MOUNTAINS...

CITY           SKY/WX    TMP DP  RH WIND       PRES   REMARKS
ALAMOSA        SUNNY     37  10  32 S5        30.17F
LA VETA PASS   SUNNY     32   5  32 SW15G29   30.12F WCI  22
SAGUACHE       SUNNY     39   9  28 SE12      30.17S
$$

COZ035-036-038>040-151700-
...NORTHERN COLORADO FRONT RANGE...

CITY           SKY/WX    TMP DP  RH WIND       PRES   REMARKS
DENVER INTL AP PTSUNNY   51  22  31 S12       29.94F
DMNS CITY PARK   N/A     49  16  27 S5G10     29.93F
AURORA         NOT AVBL
FRONT RANGE AP NOT AVBL
ERIE MUNI ARPT NOT AVBL
BOULDER MUN AP CLOUDY    50  16  25 SW5       29.92F
CENTENNIAL     PTSUNNY   49  19  30 SW9       29.96F
BROOMFIELD     PTSUNNY   45  23  42 SE3       29.94F
FORT COLLINS   CLOUDY    37  27  65 CALM      29.95S
LONGMONT       CLOUDY    42  32  69 E3        29.94F
$$

COZ041-046-047-076>085-087-088-151700-
...PIKES PEAK/PALMER DIVIDE AND SOUTHERN FOOTHILLS...

CITY           SKY/WX    TMP DP  RH WIND       PRES   REMARKS
COLO. SPRINGS  PTSUNNY   47  16  29 SE3       30.01F
A. F. ACADEMY  MOSUNNY   48  12  23 S8        30.00F
ELLICOTT       NOT AVBL
FALCON         SUNNY     48   8  20 SW6       30.02F
FORT CARSON    SUNNY     42  25  50 S5        30.00F
LIMON          SUNNY     43  28  55 SE7       29.99F
MONUMENT HILL  MOSUNNY   46  16  29 SW5       29.99F
TRINIDAD       SUNNY     48  23  37 S6        30.06F
$$

COZ042>045-048>051-090-091-151700-
...NORTHEAST COLORADO...

CITY           SKY/WX    TMP DP  RH WIND       PRES   REMARKS
GREELEY ARPT   CLOUDY    37  25  60 NW3       29.94F
AKRON          MOSUNNY   43  26  51 SW13      29.94F
BURLINGTON     SUNNY     50  24  36 SW21      30.00F
WRAY           SUNNY     50  31  47 SW7       29.96F
STERLING       MOSUNNY   46  32  57 SW10      29.93F
HOLYOKE          N/A     46  32  57 SW8       29.94F
FORT MORGAN    MOSUNNY   43  27  53 SW6       29.94F
$$

COZ086-089-092>099-151700-
...SOUTHEAST COLORADO...

CITY           SKY/WX    TMP DP  RH WIND       PRES   REMARKS
PUEBLO         SUNNY     40  28  62 VRB3      30.02F
LA JUNTA       SUNNY     44  29  55 SW7       30.04F
LAMAR          SUNNY     47  27  45 W14       30.03F
SPRINGFIELD      N/A     46  29  51 S12       30.05F
$$



USA.gov is the U.S. government's official web portal to all federal, state and local government web resources and services.